Temperature
18 18 18 18 18 17 17 17 17 17 17 17 17 17 17 17 17 17 16 16 16 16 16 16 16 16 16 16 16 15 15 15 15 15 14 14 14 14 14 13 13 13 13
18 18 18 18 18 17 17 17 17 17 17 17 16 16 16 16 16 16 16 16 16 16 16 16 16 15 15 15 15 15 15 15 15 14 14 14 14 13 13 13 13 12 12
18 18 18 18 17 17 17 17 17 17 17 16 16 16 16 16 16 16 16 16 16 15 15 15 15 15 15 15 15 15 15 14 14 14 14 13 13 13 13 12 12 12 12
18 18 18 18 17 17 17 17 17 16 16 16 16 16 16 16 16 15 15 15 15 15 15 15 15 15 15 15 15 14 14 14 14 13 13 13 13 12 12 12 11 11 11
18 18 18 17 17 17 17 17 16 16 16 16 16 16 16 15 15 15 15 15 15 14 14 14 14 14 14 14 14 14 14 13 13 13 13 12 12 12 12 11 11 11 10
18 18 18 17 17 17 17 16 16 16 16 16 16 15 15 15 15 14 14 14 14 14 14 14 14 14 14 13 13 13 13 13 13 12 12 12 12 11 11 11 11 10 10
18 18 17 17 17 17 16 16 16 16 15 15 15 15 15 15 14 14 14 14 14 14 13 13 13 13 13 13 13 13 13 12 12 12 12 12 11 11 11 11 10 10 10
17 17 17 17 16 16 16 16 15 15 15 15 15 14 14 14 14 14 14 14 13 13 13 13 13 13 12 12 12 12 12 12 12 11 11 11 11 11 10 10 10 10 9
17 17 16 16 16 16 16 15 15 15 15 14 14 14 14 14 14 14 13 13 13 13 12 12 12 12 12 12 12 12 11 11 11 11 11 10 10 10 10 10 9 9 9
17 17 16 16 16 16 15 15 15 14 14 14 14 14 14 13 13 13 13 13 13 12 12 12 12 12 12 11 11 11 11 11 10 10 10 10 10 9 9 9 9 9 8
16 16 16 16 16 15 15 15 14 14 14 14 14 13 13 13 13 13 13 12 12 12 12 12 11 11 11 11 11 11 10 10 10 10 9 9 9 9 9 8 8 8 8
16 16 16 15 15 15 15 14 14 14 14 13 13 13 13 12 12 12 12 12 12 12 11 11 11 11 11 10 10 10 10 9 9 9 9 8 8 8 8 8 8 8 8
16 15 15 15 15 14 14 14 14 13 13 13 13 12 12 12 12 12 12 11 11 11 11 10 10 10 10 10 10 9 9 9 9 8 8 8 8 8 7 7 7 7 7
15 15 15 15 14 14 14 13 13 13 13 13 12 12 12 12 12 11 11 11 11 10 10 10 10 10 9 9 9 9 8 8 8 8 8 8 7 7 7 7 7 7 7
15 15 14 14 14 14 13 13 13 12 12 12 12 12 12 11 11 11 11 10 10 10 10 10 9 9 9 8 8 8 8 8 8 8 7 7 7 7 7 7 7 7 7
14 14 14 14 13 13 13 12 12 12 12 12 11 11 11 11 11 10 10 10 9 9 9 9 9 9 8 8 8 8 8 8 7 7 7 7 7 7 7 7 6 6 6
14 14 13 13 13 13 12 12 12 12 11 11 11 11 11 10 10 10 10 9 9 9 9 9 8 8 8 8 8 8 8 7 7 7 7 7 7 7 6 6 6 6 6
13 13 13 13 12 12 12 12 12 11 11 11 11 10 10 10 10 9 9 9 9 9 8 8 8 8 8 8 7 7 7 7 7 7 7 7 7 6 6 6 6 6 6
13 12 12 12 12 12 11 11 11 11 11 10 10 10 10 9 9 9 9 9 9 8 8 8 8 8 7 7 7 7 7 7 7 7 7 7 6 6 6 6 6 6 6
12 12 12 11 11 11 11 11 11 11 10 10 10 9 9 9 9 9 8 8 8 8 8 8 8 8 7 7 7 7 7 7 7 7 7 7 6 6 6 6 6 6 6
12 12 11 11 11 11 11 11 10 10 10 10 9 9 9 9 8 8 8 8 8 8 8 8 8 7 7 7 7 7 7 7 7 7 6 6 6 6 6 6 6 6 6
11 11 11 11 11 10 10 10 10 10 10 9 9 9 9 9 8 8 8 8 8 8 8 8 7 7 7 7 7 7 7 7 7 7 6 6 6 6 6 6 6 6 6
11 11 11 10 10 10 10 10 10 10 9 9 9 9 8 8 8 8 8 8 8 8 7 7 7 7 7 7 7 7 7 7 7 7 6 6 6 6 6 6 6 6 6
11 10 10 10 10 10 10 10 9 9 9 9 9 8 8 8 8 8 8 8 7 7 7 7 7 7 7 7 7 7 7 7 7 6 6 6 6 6 6 6 6 6 6
10 10 10 10 10 10 10 9 9 9 9 9 9 8 8 8 8 8 8 7 7 7 7 7 7 7 7 7 7 7 7 6 6 6 6 6 6 6 6 6 6 5 5
10 10 10 9 9 9 9 9 9 9 9 9 8 8 8 8 8 8 8 8 7 7 7 7 7 7 7 7 7 7 6 6 6 6 6 6 6 5 5 5 5 5 5
Wind_Speed
4 3 3 2 2 2 2 2 2 2 2 2 2 2 2 2 2 2 2 2 2 1 1 2 1 1 1 1 1 2 2 2 3 1 0 1 2 3 4 5 6 7 8
4 3 3 2 2 1 1 1 2 2 2 2 3 2 2 2 2 2 2 2 2 2 1 1 1 1 0 0 1 1 2 2 3 2 1 1 2 3 4 5 5 7 7
4 4 3 2 2 2 1 1 2 3 3 3 3 3 2 2 2 2 2 2 2 2 1 1 1 1 1 1 1 1 1 1 2 3 2 1 2 3 4 4 5 5 6
4 4 3 3 2 2 2 2 3 3 3 3 3 2 2 2 2 2 3 3 3 2 2 2 2 2 2 2 1 1 2 2 3 3 3 2 2 2 3 3 3 3 3
4 4 3 3 3 3 3 3 3 3 3 3 3 2 2 2 2 3 3 3 3 3 3 3 4 5 5 3 3 2 3 3 3 3 3 2 2 2 2 2 3 2 3
5 4 3 3 4 4 3 4 4 4 4 3 3 3 3 2 4 5 4 4 4 3 3 3 4 4 5 6 7 6 5 4 3 3 2 3 2 2 2 2 2 2 1
4 3 3 3 3 3 3 4 4 3 3 4 3 4 4 4 5 6 6 5 4 3 3 3 2 3 4 5 7 8 7 6 4 3 3 2 2 2 3 3 3 2 1
4 4 3 4 4 3 3 3 3 3 3 3 3 3 4 4 5 6 6 5 4 3 3 3 3 3 3 5 6 6 6 5 4 3 3 2 2 3 4 4 4 4 3
4 4 3 4 4 4 4 3 3 3 3 3 2 3 3 3 4 5 5 4 4 3 3 3 3 3 4 6 6 5 5 4 7 9 8 7 7 6 6 5 4 4 2
4 4 4 4 4 5 4 3 3 3 3 3 3 3 3 2 3 5 5 4 4 3 3 3 5 5 6 6 5 5 4 3 4 5 7 8 7 7 7 4 4 3 2
4 4 4 4 4 4 4 3 4 5 5 4 4 3 3 2 3 4 5 4 4 4 3 2 3 6 6 6 5 4 4 4 5 5 5 5 5 5 4 4 3 2 2
4 4 4 4 4 4 5 4 5 5 5 4 3 3 3 3 3 3 5 5 5 4 3 2 2 6 7 7 5 6 7 6 5 5 4 4 3 3 3 3 3 3 2
4 4 4 4 4 4 5 5 4 4 4 3 2 2 1 2 2 3 5 6 6 4 3 5 6 7 7 5 6 7 6 4 4 4 3 2 1 1 2 3 4 4 4
5 4 5 5 5 4 4 3 4 3 3 3 2 2 1 1 1 2 3 4 6 5 4 6 8 8 6 5 5 4 3 3 3 2 2 1 1 2 2 2 2 2 2
4 4 4 4 5 5 4 3 2 2 2 3 2 3 3 2 1 2 3 3 3 4 4 3 3 3 3 3 3 3 2 2 2 1 1 2 2 2 2 1 1 1 2
4 3 3 3 4 4 5 4 7 4 5 4 3 3 1 2 3 4 4 5 6 7 5 3 2 2 2 1 1 1 1 1 1 1 1 1 1 1 1 1 1 1 1
4 3 3 3 4 4 4 4 3 4 7 7 5 4 4 4 4 5 5 6 6 6 3 2 2 2 1 1 1 1 1 0 1 1 1 1 1 1 1 1 1 1 0
4 4 4 3 4 4 4 3 3 4 3 3 4 5 5 5 5 5 6 6 4 2 2 2 2 2 2 1 1 1 1 1 1 1 1 1 2 2 1 1 1 1 1
4 3 3 3 3 4 4 4 3 3 3 3 2 3 4 5 5 4 4 2 2 2 2 2 2 2 2 2 2 2 2 2 2 2 2 2 2 2 2 2 2 2 2
3 5 5 4 3 3 3 4 3 3 3 3 2 1 1 2 2 1 1 1 2 2 2 2 2 2 2 2 2 2 2 2 2 2 2 2 3 3 3 3 3 3 3
3 4 5 4 3 3 3 3 3 3 3 2 1 1 2 2 1 1 1 2 2 3 2 2 2 2 2 2 2 2 3 3 3 3 3 3 3 3 4 4 4 4 4
3 3 3 3 3 3 3 3 3 3 3 2 1 1 3 1 1 0 1 2 3 3 3 3 3 3 3 3 3 3 3 4 4 4 4 4 4 4 4 4 4 4 4
3 3 3 3 3 3 3 2 2 2 2 2 2 2 2 1 1 1 2 2 2 2 2 3 3 3 3 4 5 5 4 5 5 5 5 4 4 4 4 5 5 5 5
3 3 3 3 3 2 2 2 2 2 2 2 2 2 2 1 1 2 2 2 2 2 3 3 3 5 6 5 5 6 7 8 7 7 7 6 5 5 5 5 5 6 6
3 3 3 3 3 2 2 2 2 2 2 2 2 2 2 1 2 2 2 2 3 3 4 4 4 6 7 7 6 6 7 8 8 7 6 6 6 6 5 6 5 6 6
3 3 3 3 2 2 2 2 2 2 2 2 2 2 2 2 2 2 2 2 2 3 4 4 5 5 6 6 6 7 7 7 6 6 5 5 4 5 5 5 6 6 7
Wind_Direction
163 164 159 166 171 170 179 195 185 167 152 155 156 151 143 130 130 137 142 137 145 148 152 157 183 170 182 211 209 202 199 192 214 235 132 104 111 110 93 90 90 91 87
156 147 151 153 139 137 160 170 153 138 134 136 129 123 119 117 124 136 144 142 152 161 167 147 197 173 147 178 190 197 193 185 181 191 146 105 100 116 102 93 86 85 83
148 145 147 150 147 140 125 116 113 115 114 113 115 115 113 116 117 116 121 119 131 139 133 133 136 119 106 68 96 127 149 143 145 156 149 104 85 104 94 86 82 75 80
151 149 155 161 156 140 119 105 105 111 111 108 104 108 112 113 112 110 111 113 108 92 85 89 87 96 100 95 92 97 113 113 115 126 122 113 105 103 109 111 94 69 71
152 156 168 161 142 126 116 99 94 96 100 101 99 89 89 98 103 117 116 110 104 93 78 69 73 80 81 89 95 99 111 113 115 120 121 120 121 133 142 134 128 106 66
156 164 157 144 138 130 122 108 94 84 84 91 96 94 83 76 90 106 120 114 107 101 92 76 70 65 75 79 79 85 97 116 132 131 135 145 157 161 131 140 141 141 127
149 145 138 138 133 126 120 111 108 101 88 80 82 84 80 79 89 95 104 111 105 100 97 95 87 71 82 89 79 75 71 73 97 134 142 157 168 181 160 152 152 145 144
139 134 132 130 128 120 117 115 108 101 98 85 80 89 89 79 83 96 102 102 98 91 88 100 103 83 91 104 94 79 67 57 66 86 114 124 135 156 163 158 145 117 91
149 153 155 148 143 137 131 123 110 106 94 84 84 95 95 80 84 105 109 104 98 87 79 86 102 97 95 105 103 94 77 59 64 76 78 78 84 102 119 116 118 123 102
177 172 160 161 155 151 146 132 111 112 106 100 81 69 85 88 90 107 118 116 108 99 82 74 83 96 97 106 113 114 103 77 74 71 65 63 71 83 96 113 142 141 122
167 153 153 155 150 140 127 120 121 117 107 94 82 59 54 63 85 101 116 124 127 116 102 82 73 91 95 99 105 108 120 114 95 86 76 66 64 66 69 77 98 124 129
140 141 143 139 135 129 124 119 121 122 114 103 90 63 36 34 54 94 115 121 123 119 116 104 92 97 96 93 96 104 106 103 97 92 82 69 61 54 51 58 72 81 83
124 131 129 122 116 121 127 128 120 120 123 123 120 108 54 29 42 85 115 118 116 112 108 104 96 95 94 87 88 98 102 101 103 100 94 74 45 46 61 65 61 69 69
131 137 134 127 119 109 105 117 127 136 142 146 152 157 142 85 64 87 108 109 108 106 103 94 90 87 83 79 80 84 92 107 118 116 110 84 68 66 62 61 64 55 57
127 136 137 135 132 123 109 91 126 129 160 163 173 172 166 173 207 153 136 133 133 129 117 92 83 83 79 74 73 75 83 99 103 106 111 95 81 76 61 50 69 75 74
130 137 143 141 137 134 124 90 55 73 85 91 107 128 112 122 123 121 118 123 127 134 119 109 112 113 115 117 113 90 79 93 99 117 123 125 122 110 82 69 76 92 95
143 147 144 142 142 144 143 138 113 58 64 70 79 102 113 119 115 114 113 115 124 127 115 134 152 160 165 161 162 167 186 188 147 151 167 171 164 151 134 124 117 121 172
124 129 134 139 144 144 142 137 135 134 109 57 46 71 92 102 105 111 119 111 107 122 149 176 194 196 193 197 203 214 218 194 181 186 193 197 193 191 194 197 193 203 229
115 119 122 124 129 129 127 124 125 127 121 103 78 58 67 85 88 105 126 122 156 172 188 204 208 208 208 211 215 216 217 214 208 199 204 203 201 203 218 220 215 214 229
103 115 118 121 120 123 127 130 128 123 117 114 114 101 85 77 78 101 155 172 182 197 206 217 219 216 216 219 220 214 211 217 216 215 222 220 214 211 217 224 223 226 235
110 116 117 119 124 128 130 133 132 132 133 134 132 131 142 132 146 183 210 215 213 217 223 225 228 230 228 218 214 213 219 226 227 227 228 227 221 225 228 226 229 234 242
124 125 128 130 129 129 129 131 135 141 143 144 144 132 158 143 160 209 246 254 247 240 236 232 236 236 232 225 221 221 227 233 234 231 232 232 228 233 239 239 241 243 245
124 127 125 124 127 129 127 129 141 152 154 161 166 157 166 191 213 235 251 264 271 270 254 232 238 256 259 249 237 230 236 244 242 234 232 236 238 239 239 240 243 246 248
131 137 139 135 131 135 143 150 159 167 168 171 177 179 185 201 232 250 254 265 272 276 268 254 253 260 267 267 261 253 250 253 252 243 236 237 242 245 244 248 251 252 254
131 134 139 143 148 151 156 164 172 177 178 184 191 196 202 214 236 253 256 260 267 274 275 268 267 269 273 277 280 278 277 272 262 251 241 235 240 242 245 250 254 258 258
123 123 127 132 140 150 158 166 171 175 185 197 205 216 225 234 249 259 259 260 271 279 283 282 283 281 284 288 293 294 292 286 277 263 243 238 242 248 251 255 261 261 265
Height
1539 1540 1541 1542 1543 1543 1544 1544 1545 1546 1547 1548 1549 1549 1550 1550 1551 1551 1552 1552 1552 1553 1553 1553 1553 1553 1553 1553 1553 1553 1553 1554 1553 1554 1554 1554 1555 1554 1555 1555 1554 1554 1555
1539 1540 1541 1541 1542 1542 1542 1543 1544 1544 1545 1546 1547 1547 1548 1548 1548 1549 1549 1550 1550 1550 1550 1550 1550 1550 1550 1550 1550 1550 1550 1550 1550 1550 1551 1551 1551 1552 1552 1552 1552 1552 1553
1538 1539 1540 1541 1541 1541 1541 1542 1542 1543 1544 1544 1545 1546 1546 1546 1546 1547 1547 1547 1547 1547 1547 1547 1547 1547 1547 1547 1547 1547 1547 1547 1547 1547 1548 1548 1549 1549 1549 1550 1550 1551 1551
1538 1539 1539 1540 1540 1541 1541 1541 1541 1542 1543 1543 1544 1544 1544 1544 1544 1544 1544 1544 1545 1545 1545 1545 1545 1545 1545 1545 1545 1545 1545 1545 1545 1545 1545 1546 1546 1547 1548 1548 1549 1550 1550
1537 1538 1539 1539 1540 1540 1540 1540 1541 1541 1542 1542 1542 1543 1543 1542 1542 1542 1542 1542 1543 1543 1543 1543 1543 1543 1543 1543 1543 1543 1543 1543 1544 1544 1544 1544 1545 1545 1546 1547 1547 1548 1549
1536 1537 1538 1538 1539 1539 1539 1539 1540 1541 1541 1541 1541 1541 1541 1541 1541 1540 1541 1540 1541 1541 1541 1542 1542 1542 1542 1542 1542 1542 1542 1543 1542 1543 1543 1543 1543 1544 1545 1545 1546 1547 1547
1535 1536 1537 1537 1538 1538 1539 1539 1539 1540 1540 1540 1540 1540 1540 1540 1539 1539 1539 1539 1539 1540 1540 1540 1541 1541 1541 1541 1541 1541 1541 1542 1542 1542 1542 1542 1543 1543 1544 1544 1545 1545 1546
1535 1535 1536 1537 1537 1538 1538 1538 1539 1539 1540 1540 1540 1540 1540 1539 1538 1538 1538 1538 1538 1538 1539 1539 1540 1540 1541 1541 1541 1541 1541 1541 1541 1541 1542 1542 1542 1542 1543 1544 1544 1544 1544
1534 1534 1535 1536 1536 1536 1537 1538 1538 1539 1539 1540 1540 1540 1539 1539 1538 1538 1538 1538 1537 1537 1538 1539 1539 1540 1540 1540 1540 1540 1540 1541 1541 1541 1541 1541 1541 1542 1542 1542 1542 1543 1543
1532 1533 1534 1534 1535 1535 1536 1537 1537 1538 1538 1539 1539 1539 1539 1538 1538 1537 1537 1537 1537 1537 1538 1538 1539 1539 1540 1540 1540 1539 1539 1540 1540 1540 1540 1540 1541 1541 1541 1541 1542 1542 1542
1531 1532 1532 1533 1534 1534 1535 1535 1536 1537 1537 1538 1538 1538 1538 1537 1537 1537 1537 1537 1537 1537 1537 1538 1539 1539 1539 1539 1539 1539 1539 1539 1539 1539 1539 1540 1540 1540 1540 1540 1541 1541 1542
1529 1530 1531 1531 1532 1533 1534 1534 1535 1535 1536 1536 1537 1537 1537 1537 1537 1537 1537 1537 1537 1537 1537 1538 1538 1538 1538 1538 1538 1538 1539 1539 1539 1539 1539 1540 1540 1540 1540 1540 1541 1541 1541
1527 1528 1529 1530 1531 1532 1532 1533 1533 1534 1534 1535 1536 1536 1536 1536 1536 1536 1536 1536 1536 1537 1537 1537 1538 1538 1538 1538 1538 1538 1539 1539 1539 1539 1539 1540 1540 1540 1540 1540 1541 1541 1541
1526 1527 1528 1528 1529 1530 1531 1531 1532 1532 1533 1534 1534 1535 1535 1535 1535 1535 1535 1535 1536 1536 1537 1537 1537 1537 1538 1538 1538 1538 1538 1539 1539 1539 1539 1540 1540 1540 1540 1540 1540 1541 1541
1525 1526 1526 1526 1527 1527 1528 1530 1530 1531 1532 1533 1533 1534 1534 1534 1534 1535 1534 1535 1535 1536 1536 1537 1537 1537 1537 1537 1538 1538 1539 1539 1539 1540 1540 1540 1540 1540 1540 1540 1540 1540 1540
1524 1524 1524 1525 1526 1526 1527 1528 1529 1530 1531 1531 1532 1532 1532 1533 1533 1533 1533 1534 1534 1535 1536 1536 1536 1536 1537 1537 1537 1538 1538 1539 1539 1539 1540 1540 1540 1540 1540 1540 1540 1540 1540
1523 1523 1524 1524 1525 1525 1526 1526 1527 1528 1529 1530 1530 1531 1531 1531 1532 1532 1532 1533 1534 1534 1535 1535 1535 1536 1536 1536 1537 1537 1537 1538 1538 1539 1539 1539 1539 1540 1540 1540 1539 1539 1539
1522 1522 1523 1523 1524 1524 1525 1526 1527 1527 1528 1528 1529 1529 1530 1530 1531 1531 1532 1532 1532 1533 1533 1534 1535 1535 1535 1536 1536 1536 1537 1537 1538 1538 1538 1539 1539 1539 1539 1539 1539 1538 1538
1521 1521 1522 1522 1523 1524 1524 1525 1526 1526 1526 1527 1528 1528 1529 1529 1530 1530 1530 1531 1531 1532 1532 1533 1534 1534 1535 1535 1535 1536 1536 1536 1536 1537 1537 1537 1537 1537 1537 1537 1537 1537 1537
1521 1521 1521 1522 1523 1523 1524 1525 1525 1525 1525 1526 1526 1527 1528 1528 1528 1529 1529 1530 1530 1531 1532 1532 1533 1533 1533 1533 1534 1534 1535 1535 1535 1535 1535 1535 1535 1535 1535 1535 1535 1535 1535
1520 1521 1521 1522 1523 1523 1524 1525 1525 1525 1525 1526 1527 1528 1528 1528 1528 1529 1529 1529 1530 1530 1531 1531 1532 1532 1532 1532 1532 1532 1533 1533 1533 1533 1533 1533 1533 1533 1533 1533 1532 1532 1532
1520 1521 1522 1522 1523 1523 1524 1525 1525 1525 1526 1526 1527 1528 1528 1528 1528 1528 1528 1529 1529 1529 1530 1530 1530 1531 1531 1531 1531 1531 1531 1530 1530 1530 1530 1530 1530 1530 1530 1530 1529 1529 1528
1521 1521 1522 1523 1523 1524 1525 1525 1525 1526 1526 1527 1527 1528 1528 1528 1527 1528 1528 1528 1528 1528 1528 1529 1529 1529 1529 1529 1529 1529 1528 1528 1528 1528 1527 1527 1527 1527 1526 1526 1526 1525 1524
1521 1521 1522 1523 1523 1524 1524 1525 1525 1526 1526 1526 1527 1527 1527 1527 1527 1527 1527 1528 1528 1528 1528 1527 1527 1527 1527 1526 1526 1526 1525 1525 1524 1524 1524 1523 1523 1522 1522 1522 1521 1520 1520
1521 1522 1522 1523 1523 1524 1524 1524 1525 1525 1526 1526 1527 1527 1527 1527 1527 1527 1527 1527 1527 1527 1527 1526 1525 1525 1524 1524 1523 1522 1522 1521 1520 1520 1519 1519 1518 1518 1517 1517 1516 1515 1515
1521 1522 1522 1523 1523 1523 1524 1524 1525 1525 1525 1526 1526 1526 1526 1526 1526 1526 1526 1526 1526 1526 1525 1524 1523 1522 1522 1521 1520 1519 1518 1517 1516 1515 1515 1514 1514 1513 1512 1512 1511 1510 1509